When you browse on this site, cookies collect data to enhance your experience and personalize the content and advertising you see.
Visit our Privacy Policy to learn more. By continuing to use the site, you agree to this use of cookies and data.

Hourly Weather Azevo

Today, 11 July, Saturday

Time Temperature Precipitation Wind Pressure Humidity
00:00 +20°C° 0.2 mm 3 mps 746 mmHg 93%
01:00 +19°C° 0.2 mm 3 mps 746 mmHg 94%
02:00 +19°C° 0.1 mm 3 mps 746 mmHg 95%
03:00 +18°C° 0.1 mm 3 mps 746 mmHg 95%
04:00 +18°C° 0 mm 2 mps 747 mmHg 97%
05:00 +18°C° 0.7 mm 3 mps 747 mmHg 96%
06:00 +19°C° 0.7 mm 3 mps 747 mmHg 95%
07:00 +19°C° 0.7 mm 4 mps 747 mmHg 94%
08:00 +20°C° 0.3 mm 3 mps 747 mmHg 91%
09:00 +20°C° 0.3 mm 3 mps 747 mmHg 88%
10:00 +21°C° 0 mm 2 mps 748 mmHg 85%
11:00 +22°C° 0.2 mm 3 mps 748 mmHg 81%
12:00 +22°C° 0.2 mm 3 mps 748 mmHg 76%
13:00 +23°C° 0.2 mm 4 mps 748 mmHg 71%
14:00 +25°C° 0 mm 4 mps 748 mmHg 68%
15:00 +25°C° 0 mm 3 mps 748 mmHg 65%
16:00 +26°C° 0 mm 3 mps 748 mmHg 63%
17:00 +25°C° 0 mm 2 mps 748 mmHg 65%
18:00 +25°C° 0 mm 2 mps 748 mmHg 68%
19:00 +25°C° 0 mm 2 mps 748 mmHg 71%
20:00 +23°C° 0 mm 2 mps 748 mmHg 74%
21:00 +20°C° 0 mm 2 mps 748 mmHg 77%
22:00 +18°C° 0 mm 2 mps 749 mmHg 80%
23:00 +18°C° 0 mm 2 mps 748 mmHg 80%

Tomorrow, 12 July, Sunday

Time Temperature Precipitation Wind Pressure Humidity
00:00 +17°C° 0 mm 2 mps 748 mmHg 81%
01:00 +17°C° 0 mm 2 mps 748 mmHg 82%
02:00 +16°C° 0 mm 2 mps 749 mmHg 83%
03:00 +16°C° 0 mm 1 mps 749 mmHg 84%
04:00 +15°C° 0 mm 1 mps 749 mmHg 86%
05:00 +18°C° 0 mm 1 mps 749 mmHg 83%
06:00 +19°C° 0 mm 1 mps 749 mmHg 79%
07:00 +20°C° 0 mm 1 mps 749 mmHg 76%
08:00 +22°C° 0 mm 1 mps 749 mmHg 72%
09:00 +23°C° 0 mm 1 mps 749 mmHg 68%
10:00 +24°C° 0 mm 1 mps 749 mmHg 64%
11:00 +25°C° 0 mm 1 mps 749 mmHg 60%
12:00 +26°C° 0 mm 1 mps 749 mmHg 57%
13:00 +26°C° 0 mm 1 mps 749 mmHg 53%
14:00 +27°C° 0 mm 1 mps 748 mmHg 52%
15:00 +27°C° 0 mm 1 mps 748 mmHg 51%
16:00 +25°C° 0 mm 0 mps 748 mmHg 51%
17:00 +25°C° 0 mm 0 mps 748 mmHg 56%
18:00 +24°C° 0 mm 0 mps 747 mmHg 60%
19:00 +24°C° 0 mm 0 mps 747 mmHg 65%
20:00 +22°C° 0 mm 0 mps 747 mmHg 69%
21:00 +20°C° 0 mm 0 mps 747 mmHg 72%
22:00 +18°C° 0 mm 0 mps 747 mmHg 75%
23:00 +17°C° 0 mm 0 mps 747 mmHg 77%

Day after tomorrow, 13 July, Monday

Time Temperature Precipitation Wind Pressure Humidity
00:00 +17°C° 0 mm 0 mps 747 mmHg 79%
01:00 +16°C° 0 mm 0 mps 747 mmHg 82%
02:00 +16°C° 0 mm 0 mps 747 mmHg 83%
03:00 +16°C° 0 mm 0 mps 747 mmHg 83%
04:00 +15°C° 0 mm 0 mps 747 mmHg 84%
05:00 +17°C° 0 mm 0 mps 746 mmHg 82%
06:00 +20°C° 0 mm 1 mps 746 mmHg 79%
07:00 +21°C° 0 mm 1 mps 746 mmHg 77%
08:00 +23°C° 0 mm 1 mps 746 mmHg 73%
09:00 +24°C° 0 mm 2 mps 746 mmHg 68%
10:00 +25°C° 0 mm 2 mps 746 mmHg 64%
11:00 +26°C° 0 mm 2 mps 746 mmHg 61%
12:00 +27°C° 0 mm 2 mps 746 mmHg 59%
13:00 +28°C° 0 mm 2 mps 745 mmHg 56%
14:00 +28°C° 0 mm 2 mps 745 mmHg 57%
15:00 +28°C° 0 mm 2 mps 745 mmHg 57%
16:00 +28°C° 0 mm 2 mps 745 mmHg 58%
17:00 +28°C° 0 mm 2 mps 745 mmHg 63%
18:00 +27°C° 0 mm 2 mps 744 mmHg 68%
19:00 +26°C° 0 mm 2 mps 744 mmHg 73%
20:00 +25°C° 0 mm 3 mps 744 mmHg 76%
21:00 +22°C° 0 mm 3 mps 744 mmHg 79%
22:00 +21°C° 0 mm 3 mps 744 mmHg 82%
23:00 +21°C° 0 mm 3 mps 744 mmHg 82%

14 July, Tuesday

Time Temperature Precipitation Wind Pressure Humidity
00:00 +20°C° 0 mm 3 mps 744 mmHg 82%
01:00 +20°C° 0 mm 2 mps 744 mmHg 82%
02:00 +20°C° 0.2 mm 2 mps 744 mmHg 85%
03:00 +20°C° 0.2 mm 2 mps 744 mmHg 87%
04:00 +19°C° 0.2 mm 2 mps 744 mmHg 89%
05:00 +20°C° 0.2 mm 3 mps 744 mmHg 89%
06:00 +22°C° 0.2 mm 3 mps 744 mmHg 88%
07:00 +24°C° 0.2 mm 3 mps 744 mmHg 87%
08:00 +25°C° 0 mm 3 mps 744 mmHg 84%
09:00 +26°C° 0 mm 4 mps 744 mmHg 80%
10:00 +28°C° 0 mm 4 mps 744 mmHg 77%
11:00 +29°C° 0 mm 4 mps 744 mmHg 73%
12:00 +30°C° 0 mm 4 mps 744 mmHg 68%
13:00 +32°C° 0 mm 4 mps 744 mmHg 64%
14:00 +33°C° 0 mm 4 mps 744 mmHg 64%
15:00 +33°C° 0 mm 4 mps 744 mmHg 65%
16:00 +33°C° 0 mm 4 mps 744 mmHg 65%
17:00 +32°C° 0 mm 4 mps 743 mmHg 69%
18:00 +32°C° 0 mm 4 mps 743 mmHg 73%
19:00 +30°C° 0 mm 4 mps 743 mmHg 77%
20:00 +28°C° 0 mm 3 mps 743 mmHg 81%
21:00 +27°C° 0 mm 3 mps 743 mmHg 85%
22:00 +26°C° 0 mm 3 mps 743 mmHg 89%
23:00 +25°C° 0 mm 3 mps 743 mmHg 84%

15 July, Wednesday

Time Temperature Precipitation Wind Pressure Humidity
00:00 +25°C° 0 mm 3 mps 743 mmHg 80%
01:00 +25°C° 0 mm 3 mps 743 mmHg 76%
02:00 +24°C° 0 mm 3 mps 743 mmHg 74%
03:00 +22°C° 0 mm 3 mps 743 mmHg 72%
04:00 +22°C° 0 mm 3 mps 743 mmHg 70%
05:00 +22°C° 0 mm 3 mps 744 mmHg 71%
06:00 +24°C° 0 mm 3 mps 744 mmHg 72%
07:00 +25°C° 0 mm 2 mps 744 mmHg 73%
08:00 +26°C° 0 mm 3 mps 743 mmHg 69%
09:00 +27°C° 0 mm 4 mps 743 mmHg 66%
10:00 +28°C° 0 mm 5 mps 743 mmHg 63%
11:00 +29°C° 0 mm 5 mps 743 mmHg 62%
12:00 +30°C° 0 mm 6 mps 743 mmHg 60%
13:00 +32°C° 0 mm 6 mps 743 mmHg 58%
14:00 +32°C° 0 mm 6 mps 743 mmHg 59%
15:00 +32°C° 0 mm 6 mps 743 mmHg 60%
16:00 +32°C° 0 mm 6 mps 742 mmHg 61%
17:00 +32°C° 0 mm 5 mps 742 mmHg 65%
18:00 +30°C° 0 mm 4 mps 742 mmHg 69%
19:00 +29°C° 0 mm 4 mps 742 mmHg 74%
20:00 +27°C° 0 mm 3 mps 741 mmHg 76%
21:00 +26°C° 0 mm 3 mps 741 mmHg 78%
22:00 +24°C° 0 mm 3 mps 741 mmHg 81%
23:00 +22°C° 0 mm 3 mps 741 mmHg 81%

16 July, Thursday

Time Temperature Precipitation Wind Pressure Humidity
00:00 +22°C° 0 mm 3 mps 741 mmHg 81%
01:00 +21°C° 0 mm 3 mps 740 mmHg 82%
02:00 +21°C° 0 mm 3 mps 740 mmHg 82%
03:00 +20°C° 0 mm 3 mps 740 mmHg 83%
04:00 +20°C° 0 mm 3 mps 740 mmHg 83%
05:00 +21°C° 0 mm 3 mps 740 mmHg 81%
06:00 +21°C° 0 mm 3 mps 739 mmHg 79%
07:00 +22°C° 0 mm 4 mps 739 mmHg 76%
08:00 +25°C° 0 mm 4 mps 739 mmHg 72%
09:00 +26°C° 0 mm 5 mps 739 mmHg 67%
10:00 +28°C° 0 mm 5 mps 739 mmHg 63%
11:00 +29°C° 0 mm 5 mps 739 mmHg 60%
12:00 +30°C° 0 mm 5 mps 739 mmHg 58%
13:00 +32°C° 0 mm 5 mps 739 mmHg 55%
14:00 +32°C° 0 mm 5 mps 739 mmHg 56%
15:00 +32°C° 0 mm 4 mps 739 mmHg 56%
16:00 +33°C° 0 mm 4 mps 739 mmHg 57%
17:00 +31°C° 0 mm 3 mps 739 mmHg 62%
18:00 +30°C° 0 mm 2 mps 739 mmHg 67%
19:00 +30°C° 0 mm 2 mps 739 mmHg 72%
20:00 +28°C° 0.2 mm 2 mps 739 mmHg 76%
21:00 +26°C° 0.2 mm 2 mps 739 mmHg 80%
22:00 +25°C° 0.2 mm 2 mps 739 mmHg 83%
23:00 +24°C° 0.2 mm 2 mps 739 mmHg 85%
Show more